FW0225 Weather Reports


Display with metric or nautical units.
time (UTC)temp
F
wind
direction
speed
MPH
gust
MPH
rain 1hr
in
rain 24hr
in
rain mn
in
humidity
%
barometer
mb
20260510073036 65 57 2.0 8.0 0.00 0.00 0.00 72 1013.9
20260510072519 65 34 3.0 8.0 0.00 0.00 0.00 74 1013.9
20260510072018 64 300 1.0 4.0 0.00 0.00 0.00 74 1013.9
20260510071520 64 297 2.0 5.0 0.00 0.00 0.00 75 1013.9
20260510071020 63 289 1.0 3.0 0.00 0.00 0.00 77 1014.0
20260510070522 62 289 2.0 3.0 0.00 0.00 0.00 77 1014.0
20260510070014 62 289 1.0 3.0 0.00 0.00 0.00 77 1014.0
20260510065517 62 289 2.0 3.0 0.00 0.00 0.00 77 1014.0
20260510065017 62 286 2.0 3.0 0.00 0.00 0.00 78 1014.1
20260510064542 62 284 1.0 2.0 0.00 0.00 0.00 79 1014.2
20260510064041 61 284 0.0 3.0 0.00 0.00 0.00 79 1014.3
20260510063524 61 283 2.0 4.0 0.00 0.00 0.00 79 1014.3
20260510063019 61 277 2.0 6.0 0.00 0.00 0.00 78 1014.4
20260510062523 61 263 2.0 4.0 0.00 0.00 0.00 79 1014.4
20260510062024 61 252 1.0 4.0 0.00 0.00 0.00 80 1014.4
20260510061526 60 252 1.0 3.0 0.00 0.00 0.00 81 1014.4
20260510061027 60 252 2.0 3.0 0.00 0.00 0.00 82 1014.4
20260510060530 60 252 1.0 3.0 0.00 0.00 0.00 82 1014.4
20260510060022 59 252 2.0 3.0 0.00 0.00 0.00 83 1014.5
20260510055526 59 251 1.0 4.0 0.00 0.00 0.00 85 1014.5
20260510055025 59 250 1.0 4.0 0.00 0.00 0.00 85 1014.5
20260510054550 58 248 1.0 5.0 0.00 0.00 0.00 86 1014.6
20260510054026 58 248 2.0 5.0 0.00 0.00 0.00 86 1014.6
20260510053530 58 247 1.0 5.0 0.00 0.00 0.00 87 1014.6
20260510053024 57 245 3.0 4.0 0.00 0.00 0.00 88 1014.6
20260510052529 57 244 2.0 3.0 0.00 0.00 0.00 88 1014.7
20260510052028 57 244 2.0 3.0 0.00 0.00 0.00 89 1014.7
20260510051515 56 243 1.0 4.0 0.00 0.00 0.00 91 1014.8
20260510051035 56 243 2.0 4.0 0.00 0.00 0.00 91 1014.7
20260510050518 55 242 2.0 3.0 0.00 0.00 0.00 92 1014.7
20260510050029 55 242 2.0 3.0 0.00 0.00 0.00 93 1014.8
20260509170518 66 242 1.0 3.0 0.00 0.00 0.00 75 1014.2
20260509170030 66 242 1.0 3.0 0.00 0.00 0.00 75 1014.2
20260509165517 67 242 1.0 3.0 0.00 0.00 0.00 74 1014.2
20260509165015 68 242 2.0 3.0 0.00 0.00 0.00 73 1014.2
20260509164521 68 241 2.0 3.0 0.00 0.00 0.00 71 1014.2
20260509164020 69 241 2.0 3.0 0.00 0.00 0.00 70 1014.1
20260509163542 69 241 2.0 5.0 0.00 0.00 0.00 69 1014.0
20260509163012 69 241 3.0 5.0 0.00 0.00 0.00 63 1014.1
20260509162535 70 246 2.0 5.0 0.00 0.00 0.00 69 1014.0
20260509162014 70 248 2.0 4.0 0.00 0.00 0.00 67 1014.0
20260509161516 70 250 3.0 5.0 0.00 0.00 0.00 67 1014.1
20260509161038 70 248 3.0 5.0 0.00 0.00 0.00 66 1014.1
20260509160521 70 245 2.0 4.0 0.00 0.00 0.00 64 1014.1
20260509160014 70 244 2.0 4.0 0.00 0.00 0.00 67 1014.1
20260509155519 70 241 3.0 4.0 0.00 0.00 0.00 68 1014.0
20260509155020 71 244 2.0 5.0 0.00 0.00 0.00 66 1014.1
20260509154546 71 237 3.0 6.0 0.00 0.00 0.00 67 1014.1
20260509154025 71 240 2.0 6.0 0.00 0.00 0.00 66 1014.1
20260509153528 72 237 1.0 3.0 0.00 0.00 0.00 66 1014.1
20260509153020 73 237 1.0 3.0 0.00 0.00 0.00 61 1014.2
20260509152528 74 237 1.0 3.0 0.00 0.00 0.00 59 1014.2
20260509152049 75 236 1.0 5.0 0.00 0.00 0.00 57 1014.3
20260509151530 76 238 2.0 8.0 0.00 0.00 0.00 53 1014.3
20260509151028 76 223 3.0 8.0 0.00 0.00 0.00 52 1014.2
20260509150512 77 215 1.0 8.0 0.00 0.00 0.00 48 1014.2
20260509150026 77 204 5.0 9.0 0.00 0.00 0.00 47 1014.1
20260509145530 77 263 2.0 7.0 0.00 0.00 0.00 50 1014.1
20260509145031 77 215 2.0 6.0 0.00 0.00 0.00 50 1014.2
20260509144515 77 193 3.0 7.0 0.00 0.00 0.00 48 1014.2
20260509144016 78 211 4.0 9.0 0.00 0.00 0.00 45 1014.2
20260509143519 79 217 4.0 9.0 0.00 0.00 0.00 44 1014.2
20260509143012 79 214 2.0 8.0 0.00 0.00 0.00 44 1014.2
20260509142537 79 194 4.0 8.0 0.00 0.00 0.00 42 1014.2
20260509142016 79 215 3.0 9.0 0.00 0.00 0.00 43 1014.2
20260509141517 79 251 4.0 9.0 0.00 0.00 0.00 43 1014.2
20260509141021 79 211 3.0 8.0 0.00 0.00 0.00 44 1014.1
20260509140523 79 195 2.0 6.0 0.00 0.00 0.00 44 1014.1
20260509140014 79 215 2.0 6.0 0.00 0.00 0.00 45 1014.1
20260509135519 79 195 2.0 6.0 0.00 0.00 0.00 43 1014.1
20260509135018 79 178 3.0 8.0 0.00 0.00 0.00 42 1014.1
20260509134520 79 196 5.0 8.0 0.00 0.00 0.00 42 1014.2
20260509134020 79 208 3.0 10.0 0.00 0.00 0.00 43 1014.2
20260509133524 79 175 5.0 10.0 0.00 0.00 0.00 40 1014.2
20260509133015 79 197 4.0 6.0 0.00 0.00 0.00 42 1014.2
20260509132520 79 225 3.0 6.0 0.00 0.00 0.00 41 1014.2
20260509132019 79 317 1.0 6.0 0.00 0.00 0.00 40 1014.2
20260509131523 79 238 3.0 6.0 0.00 0.00 0.00 38 1014.2
20260509131023 80 207 3.0 7.0 0.00 0.00 0.00 41 1014.3
20260509130527 80 238 3.0 8.0 0.00 0.00 0.00 39 1014.3
20260509130019 79 188 2.0 6.0 0.00 0.00 0.00 43 1014.2
20260509125526 79 194 2.0 6.0 0.00 0.00 0.00 41 1014.3
20260509125027 78 224 4.0 8.0 0.00 0.00 0.00 38 1014.4
20260509124529 79 230 4.0 8.0 0.00 0.00 0.00 37 1014.5
20260509124030 79 209 1.0 4.0 0.00 0.00 0.00 40 1014.5
20260509123533 79 213 2.0 6.0 0.00 0.00 0.00 40 1014.5
20260509123024 79 146 3.0 5.0 0.00 0.00 0.00 39 1014.6
20260509122524 78 209 3.0 6.0 0.00 0.00 0.00 41 1014.7
20260509122022 79 223 3.0 7.0 0.00 0.00 0.00 40 1014.7
20260509121526 78 311 2.0 7.0 0.00 0.00 0.00 40 1014.8
20260509121028 78 190 2.0 6.0 0.00 0.00 0.00 41 1014.9
20260509120511 78 219 3.0 10.0 0.00 0.00 0.00 35 1015.0
20260509120023 78 217 4.0 10.0 0.00 0.00 0.00 42 1015.0
20260509115526 78 215 3.0 9.0 0.00 0.00 0.00 42 1015.0
20260509115025 78 205 3.0 8.0 0.00 0.00 0.00 44 1015.1
20260509114526 77 203 2.0 7.0 0.00 0.00 0.00 45 1015.1
20260509114027 77 220 4.0 7.0 0.00 0.00 0.00 45 1015.1
20260509113514 77 209 3.0 8.0 0.00 0.00 0.00 48 1015.2
20260509113026 77 214 2.0 10.0 0.00 0.00 0.00 43 1015.1
20260509112530 78 236 5.0 10.0 0.00 0.00 0.00 45 1015.2
20260509112029 77 198 5.0 10.0 0.00 0.00 0.00 49 1015.3
20260509111513 77 206 2.0 9.0 0.00 0.00 0.00 47 1015.3
20260509111015 77 216 5.0 9.0 0.00 0.00 0.00 47 1015.5
20260509110517 77 184 3.0 8.0 0.00 0.00 0.00 49 1015.4
20260509110051 77 189 3.0 8.0 0.00 0.00 0.00 49 1015.5
20260509105531 77 202 5.0 7.0 0.00 0.00 0.00 48 1015.6
20260509105032 77 215 4.0 7.0 0.00 0.00 0.00 49 1015.6
20260509104514 77 186 4.0 7.0 0.00 0.00 0.00 50 1015.6
20260509104015 76 191 3.0 7.0 0.00 0.00 0.00 48 1015.7
20260509103518 76 213 3.0 7.0 0.00 0.00 0.00 49 1015.8
20260509103049 76 203 4.0 7.0 0.00 0.00 0.00 49 1015.8
20260509102513 76 217 3.0 8.0 0.00 0.00 0.00 49 1015.8
20260509102013 76 213 4.0 9.0 0.00 0.00 0.00 54 1015.9
20260509101521 76 211 4.0 9.0 0.00 0.00 0.00 51 1016.0
20260509101020 76 196 6.0 9.0 0.00 0.00 0.00 52 1016.0
20260509100542 76 214 4.0 10.0 0.00 0.00 0.00 53 1015.9
20260509100012 75 219 2.0 9.0 0.00 0.00 0.00 52 1015.9
20260509095517 75 203 4.0 9.0 0.00 0.00 0.00 52 1015.9
20260509095017 75 204 3.0 8.0 0.00 0.00 0.00 56 1015.9
20260509094521 75 196 2.0 10.0 0.00 0.00 0.00 54 1015.9
20260509094041 75 204 4.0 8.0 0.00 0.00 0.00 54 1015.9
20260509093522 75 205 4.0 10.0 0.00 0.00 0.00 57 1015.9
20260509093013 75 204 6.0 10.0 0.00 0.00 0.00 56 1015.9
20260509092516 75 202 5.0 8.0 0.00 0.00 0.00 55 1015.9
20260509092015 75 205 3.0 6.0 0.00 0.00 0.00 58 1015.9
20260509091517 75 200 3.0 7.0 0.00 0.00 0.00 61 1015.9
20260509091037 75 219 4.0 7.0 0.00 0.00 0.00 60 1015.9
20260509090520 75 138 2.0 4.0 0.00 0.00 0.00 60 1015.8
20260509090034 75 101 2.0 3.0 0.00 0.00 0.00 59 1015.8
20260509085517 74 78 2.0 3.0 0.00 0.00 0.00 65 1015.8
20260509085018 73 63 1.0 3.0 0.00 0.00 0.00 62 1015.9
20260509084542 72 60 1.0 4.0 0.00 0.00 0.00 61 1016.0
20260509084021 72 53 2.0 4.0 0.00 0.00 0.00 63 1016.0
20260509083521 71 51 1.0 4.0 0.00 0.00 0.00 62 1016.0
20260509083016 71 50 2.0 4.0 0.00 0.00 0.00 65 1016.0
20260509082518 70 44 3.0 5.0 0.00 0.00 0.00 66 1015.9
20260509082017 70 49 3.0 5.0 0.00 0.00 0.00 66 1016.0
20260509081519 70 48 3.0 5.0 0.00 0.00 0.00 67 1016.1
20260509081020 69 49 3.0 6.0 0.00 0.00 0.00 67 1016.1
20260509080524 69 64 2.0 6.0 0.00 0.00 0.00 67 1016.2
20260509080016 69 54 3.0 5.0 0.00 0.00 0.00 67 1016.2
20260509075519 69 56 3.0 6.0 0.00 0.00 0.00 69 1016.3
20260509075016 68 59 3.0 6.0 0.00 0.00 0.00 69 1016.3
20260509074539 68 65 1.0 4.0 0.00 0.00 0.00 70 1016.4
20260509074019 67 66 2.0 5.0 0.00 0.00 0.00 70 1016.4
20260509073542 67 69 2.0 4.0 0.00 0.00 0.00 71 1016.5